This demonstration page uses our WeatherBlox Daily Observations layout. Learn more.

41.86663, -103.66717

Hourly Observations for June 28, 2019

Temp ( °F °C ) Dew Point ( °F °C ) Humidity (%) Winds ( mph kmh ) Pressure ( in mb ) Visibility ( mi km ) Precip ( " mm )
12:53 am 00:53 Clear 68 20 64 17.8 87 87 E 8 13 29.88 1012 10 16.0934 0 0
1:53 am 01:53 Clear 67 19.4 64 17.8 91 91 E 12 19 29.89 1012 10 16.0934 0 0
2:53 am 02:53 Clear 65 18.3 62 16.7 90 90 ENE 6 9 29.88 1012 10 16.0934 0 0
3:53 am 03:53 Clear 64 17.8 62 16.7 93 93 ENE 3 6 29.88 1012 10 16.0934 0 0
4:53 am 04:53 Clear 61 16.1 60 15.6 97 97 E 3 6 29.91 1013 10 16.0934 0 0
5:53 am 05:53 Sunny 61 16.1 61 16.1 100 100 SE 6 9 29.91 1013 10 16.0934 0 0
6:53 am 06:53 Sunny 65 18.3 65 18.3 100 100 E 6 9 29.92 1013 10 16.0934 0 0
7:53 am 07:53 undefined 70 21.1 65 18.3 84 84 E 5 7 29.92 1013 10 16.0934 0 0
8:53 am 08:53 Sunny 76 24.4 68 20 77 77 Calm 29.94 1014 10 16.0934 0 0
9:53 am 09:53 Sunny 80 26.7 72 22.2 76 76 Calm 29.94 1014 10 16.0934 0 0
10:53 am 10:53 Sunny 84 28.9 76 24.4 77 77 Calm 29.94 1014 10 16.0934 0 0
11:53 am 11:53 Sunny 89 31.7 82 27.8 80 80 VRB 3 6 29.93 1013 10 16.0934 0 0
12:53 pm 12:53 Sunny 92 33.3 86 30 83 83 VRB 3 6 29.9 1013 10 16.0934 0 0
1:53 pm 13:53 Sunny N/A N/A N/A ENE 3 6 N/A 10 16.0934 0 0
2:53 pm 14:53 Sunny 97 36 N/A N/A VRB 3 6 29.89 1012 10 16.0934 0 0
3:53 pm 15:53 Sunny 99 37 N/A N/A NNE 7 11 29.88 1012 10 16.0934 0 0
4:53 pm 16:53 Sunny 99 37 N/A N/A E 10 17 29.87 1012 10 16.0934 0 0
5:53 pm 17:53 Sunny 93 34 N/A N/A SSE 7 11 29.87 1012 10 16.0934 0 0
6:53 pm 18:53 Sunny 91 32.8 84 28.9 80 80 SE 8 13 29.87 1011 10 16.0934 0 0
7:53 pm 19:53 Sunny 87 30.6 78 25.6 75 75 SE 8 13 29.87 1012 10 16.0934 0 0
8:53 pm 20:53 Clear 79 26.1 68 20 69 69 Calm 29.88 1012 10 16.0934 0 0
9:53 pm 21:53 Clear 74 23.3 65 18.3 74 74 ESE 7 11 29.91 1013 10 16.0934 0 0
10:53 pm 22:53 Clear 73 22.8 65 18.3 76 76 ESE 8 13 29.91 1013 10 16.0934 0 0
11:53 pm 23:53 Clear 71 21.7 64 17.8 79 79 E 9 15 29.9 1012 10 16.0934 0 0

Powered by AerisWeather